Location: Buch
(49.7331°N, 12.1098°E)
Time: 14:57:35
(UTC+00:00)

ATLAS 5 CENTAUR R/B - Pass Details

Date: 12 May 2021
Orbit: 513 x 1144 km, 63.3° (Epoch: 18 June)

Event Time Altitude Azimuth Distance (km) Brightness Sun altitude
Rises 20:19:59 0° 309° (NW) 3,298 7.1 -12.5°
Reaches altitude 10° 20:22:38 10° 296° (WNW) 2,470 5.8 -12.7°
Maximum altitude 20:27:16 25° 243° (WSW) 1,775 4.0 -13.2°
Drops below altitude 10° 20:32:28 10° 191° (S) 2,798 4.5 -13.7°
Enters shadow 20:33:28 - 187° (S) 3,104 4.7 -13.8°
